This demonstration page uses our WeatherBlox Daily Observations layout. Learn more.

Left ArrowRight Arrow

47.50024, -111.30081

Hourly Observations for November 17, 2015

Temp ( °F °C ) Dew Point ( °F °C ) Humidity (%) Winds ( mph kmh ) Pressure ( in mb ) Visibility ( mi km ) Precip ( " mm )
12:53 am 00:53 Clear 31 -0.6 10 -12.2 42 42 SW 25 41 29.92 1013 10 16 0.00 0.00
1:53 am 01:53 Clear 32 0 8 -13.3 36 36 SW 29 46 29.88 1012 10 16 0.00 0.00
2:53 am 02:53 Mostly Cloudy 33 0.6 6 -14.4 32 32 SW 22 35 29.88 1012 10 16 0.00 0.00
3:53 am 03:53 Mostly Cloudy 34 1.1 5 -15 29 29 SW 24 39 29.84 1010 10 16 0.00 0.00
4:53 am 04:53 Mostly Clear 34 1.1 7 -13.9 32 32 SSW 31 50 29.80 1009 10 16 0.00 0.00
5:53 am 05:53 Clear 34 1.1 10 -12.2 37 37 SW 32 52 29.80 1009 10 16 0.00 0.00
6:53 am 06:53 Mostly Clear 35 1.7 14 -10 42 42 SW 29 46 29.86 1011 10 16 0.00 0.00
7:53 am 07:53 Cloudy 37 2.8 17 -8.3 44 44 SSW 25 41 29.88 1012 10 16 0.00 0.00
8:53 am 08:53 Cloudy 38 3.3 20 -6.7 48 48 SSW 24 39 29.86 1011 10 16 0.00 0.00
9:53 am 09:53 Mostly Sunny 40 4.4 24 -4.4 53 53 SW 25 41 29.83 1010 10 16 0.00 0.00
10:53 am 10:53 Sunny 44 6.7 25 -3.9 47 47 SW 33 54 29.78 1009 10 16 0.00 0.00
11:53 am 11:53 Sunny 44 6.7 26 -3.3 49 49 SSW 30 48 29.73 1007 10 16 0.00 0.00
12:53 pm 12:53 Sunny 47 8.3 27 -2.8 46 46 SSW 32 52 29.68 1005 10 16 0.00 0.00
1:53 pm 13:53 Sunny 48 8.9 28 -2.2 46 46 SSW 35 56 29.60 1002 10 16 0.00 0.00
2:53 pm 14:53 Sunny 49 9.4 28 -2.2 44 44 SSW 30 48 29.55 1001 10 16 0.00 0.00
3:53 pm 15:53 Sunny 46 8 27 -3 46 46 S 30 48 29.44 997 10 16 0.00 0.00
4:53 pm 16:53 Clear 48 8.9 28 -2.2 46 46 S 22 35 29.49 999 10 16 0.00 0.00
5:53 pm 17:53 Clear 50 10 28 -2.2 43 43 SW 32 52 29.40 996 10 16 0.00 0.00
6:53 pm 18:53 Clear 51 10.6 28 -2.2 41 41 SW 47 76 29.27 991 10 16 0.00 0.00
7:53 pm 19:53 Clear 51 10.6 28 -2.2 41 41 SSW 39 63 29.26 991 10 16 0.00 0.00
8:53 pm 20:53 Clear 51 10.6 28 -2.2 41 41 SW 40 65 29.22 990 10 16 0.00 0.00
9:53 pm 21:53 Clear 51 10.6 29 -1.7 43 43 SW 45 72 29.18 988 10 16 0.00 0.00
10:53 pm 22:53 Clear 51 10.6 29 -1.7 43 43 SW 38 61 29.14 987 10 16 0.00 0.00
11:53 pm 23:53 Clear 50 10 30 -1.1 46 46 SW 35 56 29.15 987 10 16 0.00 0.00

Powered by AerisWeather